Location: Unspecified
(49.2170°N, 0.0000°E)
Time: 15:03:03
(UTC+00:00)

Transit 4A - Pass Details

Date: 18 June 2019
Orbit: 863 x 981 km, 66.8° (Epoch: 20 August)

Event Time Altitude Azimuth Distance (km) Brightness Sun altitude
Rises 08:23:15 0° 185° (S) 3,598 11.0 40.5°
Reaches altitude 10° 08:25:55 10° 177° (S) 2,673 10.6 40.9°
Maximum altitude 08:31:36 37° 112° (ESE) 1,452 11.6 41.8°
Drops below altitude 10° 08:37:24 10° 48° (NE) 2,737 10.8 42.7°
Sets 08:40:09 0° 40° (NE) 3,694 11.3 43.2°
